Temp
11 10 10 9 9 10 11 11 12 12 12 12 12 12 11 10 11 11 11 10 10 10 10 10 9 9 9 9 9 9 9 9 9 9 9 9 8 8 8 8 8 9 9 9 9 9 9 9 9
10 10 10 9 9 11 12 11 12 12 12 12 11 11 10 11 12 12 11 10 10 10 10 10 10 9 9 9 9 9 9 9 9 9 9 9 8 8 8 8 8 9 9 9 9 9 9 9 9
11 10 10 10 10 11 10 11 12 12 12 12 11 10 11 12 11 12 11 10 10 10 10 10 9 9 9 9 9 9 9 9 9 9 9 9 8 8 8 8 8 9 9 9 9 8 8 9 8
10 10 10 10 12 11 12 11 12 12 12 12 12 11 11 10 11 11 10 8 10 10 10 9 9 9 9 9 9 9 9 9 9 9 9 9 9 8 8 9 9 9 9 9 8 8 8 8 8
9 10 10 11 11 11 12 12 11 11 11 11 11 9 10 9 9 9 8 8 7 10 10 10 9 9 9 10 9 9 9 9 9 9 9 9 9 9 9 9 9 9 8 8 8 8 8 8 8
10 10 10 11 12 11 11 11 12 11 11 11 10 11 10 8 9 8 8 8 8 9 10 10 10 9 9 9 9 9 9 9 9 9 9 9 9 9 8 8 8 8 8 8 9 8 8 8 8
9 10 11 11 11 12 11 11 11 10 10 11 11 12 10 10 8 8 8 9 8 10 10 10 10 9 9 9 9 9 9 9 9 9 9 9 9 9 9 9 8 8 8 8 9 8 8 8 8
10 10 11 12 11 12 11 11 11 11 11 11 11 11 11 9 9 8 8 8 8 10 10 10 10 9 9 9 9 9 9 9 9 9 9 9 9 9 9 9 9 9 8 8 8 8 8 8 8
9 10 11 11 12 11 11 11 11 11 11 11 11 12 11 11 8 8 8 9 8 8 10 10 10 9 9 9 9 9 9 9 9 9 9 9 9 9 9 9 9 9 8 8 8 8 8 8 8
10 10 10 11 11 11 11 11 11 11 11 11 11 11 11 10 8 8 8 8 8 8 7 8 10 9 9 9 9 9 9 9 9 8 8 8 9 8 8 8 8 8 8 8 9 7 8 7 8
11 11 13 13 12 12 11 11 11 11 12 11 12 12 11 9 8 8 8 9 8 8 7 8 8 9 9 9 9 9 9 9 10 9 8 8 8 8 8 7 8 7 7 9 8 7 7 7 8
12 13 12 13 12 12 12 12 11 11 11 11 12 12 11 8 8 9 9 8 8 8 8 8 9 9 9 9 9 8 8 9 10 9 9 8 8 8 7 8 9 8 8 9 8 8 9 8 8
14 14 14 13 12 12 12 12 11 10 12 11 13 11 9 8 9 9 9 8 8 8 8 8 9 10 9 9 8 8 8 8 10 9 9 8 7 8 8 8 8 8 8 8 8 7 9 8 7
15 15 14 13 13 13 13 12 12 12 11 11 13 11 9 9 9 9 9 9 8 8 8 9 10 9 8 8 9 8 7 8 10 9 9 8 10 8 8 8 8 8 8 8 7 6 6 6 8
14 15 15 14 13 12 13 12 13 11 11 13 13 10 9 9 9 9 9 9 8 8 7 10 11 10 10 9 9 9 9 7 9 9 9 9 9 8 8 8 7 8 7 8 8 7 7 7 6
14 14 15 15 15 14 14 13 11 13 11 10 9 9 9 9 9 9 9 8 8 7 9 10 11 10 10 10 10 8 8 8 9 9 9 9 8 9 8 9 9 8 9 8 8 7 7 7 6
14 15 15 16 15 15 15 14 13 12 12 12 10 10 9 9 9 9 9 8 8 8 11 10 11 10 10 10 9 9 7 8 8 10 9 9 8 8 9 9 9 9 8 8 7 7 6 6 7
16 16 16 17 15 15 15 14 14 11 12 13 11 10 10 9 9 9 8 8 8 9 11 11 11 10 10 10 10 9 9 8 9 9 9 9 9 8 9 10 9 8 8 9 6 7 7 7 7
15 17 18 18 18 16 15 14 13 14 13 12 12 11 10 10 9 9 8 8 8 9 11 11 11 11 10 10 10 10 10 9 9 9 9 9 9 9 9 8 8 7 7 8 8 7 7 7 7
15 16 17 18 18 16 16 15 12 14 14 12 13 12 11 10 10 9 9 8 8 10 11 11 11 11 11 10 10 10 9 9 8 9 10 10 9 9 9 9 9 10 9 8 9 8 7 6 6
15 15 17 17 18 17 16 13 13 13 13 11 13 12 11 11 10 10 9 9 9 11 12 11 11 11 11 10 10 10 8 8 9 9 10 10 10 10 10 9 9 9 9 9 9 8 8 8 7
15 15 15 16 17 18 17 16 13 15 12 10 13 13 12 11 10 10 11 9 11 13 12 12 11 11 11 11 10 10 10 8 9 9 9 10 10 10 10 10 9 9 8 9 9 9 8 7 7
14 15 15 15 16 17 17 18 18 16 12 13 13 13 12 11 11 11 13 13 12 13 13 12 12 11 11 11 11 11 10 10 8 9 9 11 10 11 11 10 10 10 9 9 9 9 9 8 8
14 14 14 15 16 17 16 17 18 15 16 15 14 12 13 12 11 12 14 13 12 12 13 13 12 12 11 11 11 11 10 10 9 9 9 10 10 11 11 10 10 10 10 10 10 10 10 9 9
13 13 14 14 15 17 17 17 17 18 17 16 14 10 13 13 12 11 13 13 13 12 13 13 13 12 12 11 11 11 10 10 10 9 8 9 11 11 10 10 10 10 10 10 10 10 10 10 9
13 13 14 14 16 17 17 17 17 17 18 16 16 15 14 14 13 12 14 14 14 14 14 14 13 12 12 12 12 12 11 11 11 10 10 9 10 9 10 10 10 11 10 11 11 11 10 10 10
12 13 13 14 16 17 18 18 17 18 18 18 16 15 14 14 14 13 12 15 15 14 14 15 14 13 12 13 12 12 12 11 11 11 11 11 10 9 9 10 11 11 11 11 11 11 11 11 11
12 12 13 14 14 15 17 18 19 18 18 18 16 16 16 14 13 11 13 14 15 15 15 14 14 14 13 13 12 12 13 12 11 11 11 12 11 10 11 12 11 11 11 11 11 11 11 11 11
11 11 12 13 14 16 16 17 18 19 19 18 17 17 16 14 12 10 11 13 15 15 15 15 15 15 14 13 13 13 12 12 12 12 12 12 12 11 11 12 12 12 12 12 12 11 12 12 11
10 11 12 13 13 14 15 16 18 18 18 18 18 18 16 16 14 11 11 12 13 15 15 15 15 15 15 14 14 14 13 12 12 12 12 12 12 12 12 12 12 12 12 12 12 12 12 12 12
Height
3150 3151 3151 3151 3156 3150 3145 3141 3146 3153 3156 3157 3158 3160 3163 3164 3165 3172 3173 3177 3179 3182 3184 3186 3188 3190 3192 3194 3195 3197 3198 3199 3200 3201 3202 3203 3204 3204 3204 3204 3205 3206 3206 3206 3207 3208 3209 3209 3210
3151 3151 3152 3152 3152 3147 3141 3122 3144 3153 3156 3158 3159 3158 3162 3164 3167 3168 3173 3178 3181 3183 3186 3189 3190 3192 3194 3196 3197 3199 3200 3201 3202 3203 3204 3206 3206 3206 3206 3206 3206 3206 3207 3208 3208 3209 3210 3211 3212
3151 3151 3153 3152 3149 3147 3133 3142 3144 3155 3158 3156 3158 3161 3161 3162 3165 3171 3176 3179 3182 3185 3187 3190 3192 3194 3196 3198 3200 3201 3202 3203 3204 3206 3207 3207 3207 3208 3208 3208 3208 3208 3209 3210 3210 3211 3212 3211 3212
3151 3153 3154 3151 3146 3147 3144 3147 3150 3154 3157 3160 3160 3160 3162 3163 3166 3172 3177 3181 3183 3186 3189 3191 3193 3195 3198 3200 3202 3203 3203 3205 3207 3208 3208 3209 3209 3210 3210 3209 3209 3210 3211 3211 3211 3211 3211 3211 3212
3151 3152 3151 3148 3148 3146 3146 3146 3150 3152 3157 3156 3161 3162 3163 3167 3170 3175 3180 3186 3186 3187 3190 3193 3196 3197 3200 3200 3203 3204 3206 3207 3208 3210 3210 3210 3211 3211 3210 3210 3210 3212 3212 3212 3213 3213 3213 3214 3215
3152 3152 3150 3149 3146 3147 3148 3150 3151 3151 3157 3155 3162 3163 3164 3168 3172 3178 3185 3187 3186 3189 3192 3194 3197 3199 3201 3203 3205 3206 3208 3209 3210 3211 3211 3212 3212 3212 3212 3212 3211 3213 3214 3216 3216 3215 3216 3217 3219
3153 3152 3149 3148 3147 3149 3149 3153 3153 3157 3158 3156 3163 3164 3166 3170 3174 3181 3187 3187 3188 3191 3193 3195 3198 3200 3202 3204 3206 3208 3210 3211 3212 3212 3213 3213 3214 3214 3214 3214 3215 3216 3217 3218 3219 3219 3220 3221 3223
3153 3151 3149 3150 3147 3149 3153 3154 3155 3156 3162 3162 3164 3165 3166 3169 3175 3183 3187 3190 3189 3192 3194 3196 3199 3201 3204 3206 3208 3210 3212 3213 3214 3214 3215 3216 3216 3217 3218 3217 3219 3219 3220 3222 3223 3223 3224 3225 3226
3153 3151 3150 3149 3151 3145 3153 3154 3155 3150 3162 3162 3164 3163 3167 3169 3177 3183 3187 3190 3190 3192 3194 3197 3200 3203 3206 3208 3210 3212 3214 3215 3216 3217 3217 3217 3218 3220 3222 3221 3223 3223 3224 3225 3226 3226 3226 3227 3229
3152 3151 3150 3151 3153 3151 3154 3156 3157 3159 3161 3163 3163 3165 3167 3170 3177 3182 3187 3187 3190 3194 3197 3198 3201 3204 3206 3210 3212 3214 3215 3216 3218 3219 3219 3220 3220 3222 3224 3225 3225 3226 3226 3227 3228 3228 3231 3229 3229
3154 3152 3151 3154 3151 3154 3152 3154 3155 3159 3163 3161 3160 3164 3166 3169 3178 3184 3188 3190 3192 3196 3200 3202 3201 3205 3208 3211 3213 3214 3216 3218 3219 3220 3221 3223 3223 3223 3225 3226 3229 3228 3228 3228 3231 3234 3235 3232 3232
3154 3152 3153 3153 3152 3153 3153 3151 3152 3150 3159 3165 3159 3163 3166 3169 3175 3184 3189 3189 3194 3198 3199 3201 3203 3205 3208 3212 3212 3216 3217 3219 3222 3222 3223 3223 3227 3228 3229 3228 3230 3229 3229 3231 3232 3236 3234 3234 3236
3153 3153 3152 3151 3150 3153 3153 3152 3132 3152 3152 3155 3160 3162 3167 3172 3177 3186 3190 3193 3193 3199 3200 3199 3204 3206 3209 3212 3214 3218 3219 3220 3224 3225 3225 3225 3225 3229 3229 3230 3231 3230 3231 3233 3236 3235 3235 3238 3238
3152 3152 3152 3152 3150 3151 3151 3153 3156 3151 3150 3154 3158 3161 3168 3174 3179 3186 3189 3192 3195 3198 3199 3199 3204 3205 3205 3214 3214 3216 3220 3224 3225 3227 3226 3225 3229 3230 3230 3233 3234 3231 3234 3233 3234 3236 3238 3238 3238
3150 3151 3150 3149 3151 3149 3153 3151 3151 3148 3148 3159 3157 3162 3170 3175 3182 3185 3188 3190 3194 3196 3198 3198 3203 3206 3209 3213 3215 3217 3221 3224 3226 3228 3229 3230 3230 3233 3233 3233 3233 3235 3234 3235 3238 3239 3241 3241 3241
3148 3149 3148 3148 3148 3152 3153 3152 3151 3151 3144 3162 3159 3164 3169 3176 3181 3184 3187 3189 3192 3195 3195 3198 3202 3206 3209 3213 3215 3219 3221 3223 3227 3229 3231 3232 3232 3233 3232 3236 3234 3234 3236 3238 3239 3239 3239 3243 3242
3144 3144 3144 3145 3145 3149 3152 3151 3152 3152 3156 3162 3163 3166 3169 3174 3180 3182 3186 3188 3189 3192 3194 3198 3201 3205 3209 3213 3216 3219 3222 3223 3226 3228 3231 3234 3234 3234 3232 3234 3234 3234 3238 3238 3239 3240 3241 3244 3245
3139 3141 3140 3140 3142 3146 3149 3148 3149 3140 3150 3158 3165 3169 3169 3172 3178 3178 3183 3187 3188 3190 3194 3198 3200 3204 3209 3213 3215 3218 3221 3224 3227 3228 3231 3234 3235 3235 3235 3235 3236 3235 3237 3237 3239 3241 3244 3244 3245
3137 3136 3136 3136 3137 3141 3144 3144 3150 3152 3154 3159 3162 3167 3170 3170 3176 3176 3181 3184 3186 3187 3192 3196 3199 3203 3207 3212 3215 3218 3220 3223 3225 3228 3229 3232 3234 3236 3236 3236 3236 3238 3238 3239 3239 3241 3244 3245 3247
3137 3136 3133 3132 3134 3138 3138 3141 3146 3151 3152 3153 3160 3163 3167 3170 3172 3173 3177 3180 3184 3185 3190 3194 3198 3202 3206 3211 3214 3217 3220 3224 3224 3228 3230 3232 3235 3235 3237 3238 3238 3237 3238 3240 3239 3240 3243 3244 3247
3134 3134 3134 3133 3133 3134 3138 3137 3140 3143 3148 3144 3158 3159 3164 3164 3167 3168 3172 3176 3180 3182 3187 3192 3196 3201 3205 3209 3213 3215 3219 3222 3224 3225 3229 3231 3234 3235 3236 3238 3239 3239 3240 3240 3240 3241 3242 3245 3247
3131 3133 3134 3133 3131 3128 3130 3132 3133 3132 3140 3120 3154 3153 3159 3161 3166 3165 3168 3173 3176 3180 3185 3190 3194 3199 3204 3208 3211 3215 3218 3221 3224 3227 3229 3232 3233 3235 3236 3237 3238 3239 3240 3241 3242 3243 3242 3245 3246
3129 3131 3131 3133 3131 3129 3124 3125 3122 3125 3126 3133 3144 3151 3156 3158 3161 3160 3163 3169 3173 3177 3182 3187 3192 3196 3201 3205 3210 3214 3217 3220 3225 3225 3227 3230 3232 3234 3236 3238 3239 3239 3241 3241 3242 3243 3244 3245 3247
3129 3130 3129 3129 3128 3124 3123 3124 3122 3124 3126 3130 3142 3144 3158 3157 3156 3157 3161 3166 3170 3173 3178 3183 3188 3193 3198 3202 3207 3211 3215 3218 3221 3225 3225 3229 3231 3233 3235 3237 3239 3240 3241 3243 3243 3243 3244 3246 3246
3125 3128 3127 3126 3122 3111 3121 3121 3120 3119 3120 3123 3127 3128 3151 3153 3153 3154 3156 3160 3165 3169 3174 3179 3185 3189 3194 3199 3203 3209 3213 3216 3220 3222 3225 3227 3229 3232 3234 3236 3238 3240 3241 3242 3243 3244 3245 3246 3247
3119 3123 3121 3120 3113 3111 3115 3110 3113 3117 3123 3118 3121 3122 3139 3141 3148 3151 3152 3157 3161 3165 3169 3174 3180 3186 3190 3194 3200 3205 3211 3214 3217 3220 3224 3226 3228 3229 3232 3234 3237 3239 3240 3242 3243 3244 3245 3246 3247
3114 3115 3119 3117 3112 3106 3106 3105 3110 3115 3119 3123 3122 3125 3123 3134 3141 3152 3151 3154 3157 3161 3165 3170 3176 3182 3187 3192 3197 3200 3207 3210 3213 3218 3221 3224 3228 3229 3231 3233 3235 3238 3239 3241 3243 3244 3245 3246 3247
3111 3114 3114 3115 3112 3106 3104 3100 3101 3108 3114 3119 3115 3122 3124 3133 3135 3139 3154 3152 3154 3159 3163 3166 3170 3177 3183 3187 3192 3197 3202 3207 3211 3214 3218 3221 3225 3228 3228 3231 3234 3236 3239 3240 3241 3243 3244 3245 3247
3109 3108 3108 3109 3108 3104 3105 3100 3100 3104 3105 3110 3111 3114 3116 3116 3124 3124 3139 3153 3152 3155 3158 3163 3167 3171 3177 3182 3187 3192 3196 3201 3206 3210 3213 3218 3222 3226 3227 3229 3232 3234 3236 3238 3240 3241 3243 3245 3246
3105 3105 3107 3106 3104 3101 3101 3099 3098 3101 3102 3103 3109 3114 3108 3114 3122 3132 3126 3136 3148 3149 3153 3158 3162 3167 3172 3177 3181 3186 3192 3196 3199 3203 3209 3213 3217 3220 3224 3226 3230 3232 3234 3236 3238 3239 3240 3243 3245
Wind_Speed
4 5 9 5 3 7 10 5 14 14 14 15 11 16 12 10 14 10 33 30 28 26 24 22 21 20 18 16 14 14 12 10 9 8 7 7 7 7 9 10 10 10 10 9 8 7 6 5 6
4 5 6 4 6 11 9 11 22 13 18 16 10 13 15 13 8 25 31 30 26 24 23 22 21 19 17 16 14 12 10 9 8 7 6 6 6 6 7 8 9 8 8 8 7 6 6 7 7
4 6 4 3 7 7 4 12 23 21 20 15 18 10 8 9 14 29 29 29 25 23 22 22 20 19 16 15 13 11 10 9 8 8 7 6 6 5 5 5 5 5 5 6 6 7 7 5 9
4 1 3 8 10 6 4 21 21 22 17 13 9 12 11 9 30 31 28 23 23 22 22 21 20 18 15 14 13 13 11 10 10 9 8 7 5 4 3 2 2 3 5 7 8 6 8 10 12
2 3 8 9 8 4 7 13 21 18 21 18 9 19 16 25 28 28 26 20 15 24 20 20 20 18 15 15 14 14 12 12 11 9 8 5 5 4 4 3 3 7 8 9 9 11 12 13 14
2 6 8 12 8 9 10 21 25 22 20 13 9 17 24 21 25 29 23 20 15 20 20 19 19 18 16 15 14 15 14 13 11 10 8 7 6 7 8 10 9 11 11 11 13 14 15 15 16
8 10 12 15 5 5 8 20 19 18 14 19 10 14 22 26 26 32 24 20 14 17 18 18 18 18 17 15 15 15 14 12 11 11 11 10 12 13 13 13 12 12 12 14 15 17 18 18 17
5 12 8 9 1 5 9 19 19 16 17 10 9 6 15 29 31 32 25 19 17 18 16 17 19 18 17 15 15 14 14 11 11 13 13 15 15 15 15 15 13 13 13 15 16 18 20 20 18
13 12 10 10 1 15 19 12 13 17 11 9 10 5 11 22 35 33 25 22 16 12 15 19 19 19 17 16 15 14 13 11 12 13 13 13 17 17 13 17 15 14 14 14 16 17 19 21 19
14 11 11 3 7 10 14 14 16 16 17 15 12 12 11 27 37 32 29 25 22 11 13 9 20 18 18 16 15 14 13 11 12 12 12 14 17 15 14 13 14 15 14 14 13 14 16 18 16
14 17 14 11 1 13 15 15 17 8 12 14 16 11 16 32 38 31 27 20 19 14 15 17 15 19 18 17 14 13 11 12 11 13 10 10 14 10 15 12 9 16 8 12 13 12 13 15 10
19 13 9 15 3 10 12 12 14 19 20 13 12 9 20 34 37 30 27 19 17 21 20 17 17 18 19 15 17 14 8 8 11 9 11 9 9 7 1 9 10 8 9 9 7 7 8 7 12
16 17 14 10 8 9 5 6 11 21 20 23 8 16 29 29 31 30 26 25 20 22 17 17 20 20 16 15 14 11 9 5 13 10 9 13 9 6 9 9 8 4 11 7 5 9 7 6 6
14 12 15 10 13 9 4 11 7 15 30 22 10 23 32 26 29 29 27 27 24 22 21 19 22 19 17 19 14 15 14 10 9 11 5 6 8 8 8 5 5 3 6 10 7 10 8 8 4
16 17 12 17 12 15 7 10 9 10 27 15 14 26 32 28 31 30 28 26 28 24 27 17 20 20 22 20 14 12 16 15 9 13 8 5 9 8 3 8 5 3 4 6 5 14 9 7 3
15 19 20 18 12 16 13 9 17 13 20 17 19 28 33 34 30 31 27 24 26 24 21 17 18 20 19 16 14 13 13 11 8 12 9 6 4 9 6 4 8 3 4 4 7 13 11 2 6
17 20 20 17 20 16 14 8 14 19 20 17 18 24 28 31 31 30 29 27 26 27 19 20 20 20 18 16 16 12 16 11 11 10 10 8 6 2 4 8 4 5 6 6 8 5 13 7 11
17 19 19 19 20 20 19 12 12 10 19 14 19 24 29 32 32 31 30 28 26 25 21 21 21 21 19 18 17 17 17 17 12 9 7 7 7 5 5 6 7 6 6 7 7 12 9 8 2
19 21 19 18 23 19 23 26 13 18 23 27 21 25 30 30 33 31 31 29 27 25 24 23 23 22 19 18 16 18 16 12 12 10 11 7 6 5 5 4 7 7 1 5 9 15 14 10 9
22 21 20 15 18 19 22 23 21 15 32 29 23 26 31 32 30 33 34 31 32 27 24 25 24 21 20 19 17 16 16 18 14 10 8 7 6 5 5 5 5 4 7 6 6 12 8 13 13
21 21 18 17 14 18 16 16 21 20 36 25 24 27 30 35 35 36 35 34 32 28 25 25 24 21 20 21 20 19 19 16 11 11 12 8 6 5 5 4 4 3 7 8 5 7 5 12 15
23 19 21 21 20 21 23 19 23 26 31 28 28 27 31 34 37 36 34 35 31 27 25 25 25 24 22 22 22 20 18 20 15 9 7 8 6 4 5 5 4 3 5 5 7 6 11 7 12
23 18 18 21 25 25 27 23 21 30 36 28 20 28 30 36 38 37 27 30 30 27 24 26 26 26 26 24 23 21 19 17 12 13 9 9 6 5 4 4 3 2 2 4 6 6 8 10 10
21 21 20 20 23 24 31 28 24 34 36 28 27 30 31 35 37 26 19 26 31 30 25 26 28 27 28 26 25 24 22 20 19 15 17 18 9 8 6 6 5 3 1 3 4 4 5 6 9
22 21 22 18 17 18 28 33 28 21 34 34 32 43 41 35 35 33 26 25 25 30 25 25 26 28 28 28 27 26 24 22 18 17 18 15 13 13 9 7 6 5 4 2 2 3 4 4 5
30 26 24 16 14 18 29 32 36 34 22 27 24 17 43 35 33 34 27 20 17 18 20 22 24 25 28 29 29 27 25 25 22 19 16 20 11 6 7 9 7 6 5 4 3 2 4 4 5
27 33 33 32 32 26 30 28 30 27 31 23 29 35 35 38 37 33 33 25 20 19 16 19 21 24 26 26 29 29 28 28 26 23 20 19 15 14 17 11 9 8 7 7 7 4 3 5 4
26 27 28 32 22 24 26 32 25 29 29 32 27 32 30 44 49 34 38 30 24 22 18 16 17 22 24 27 27 29 28 29 29 26 24 21 18 18 17 12 12 10 9 9 8 7 6 6 5
23 25 31 29 34 18 16 27 27 23 31 35 33 29 30 22 42 40 37 31 25 25 26 23 19 15 24 26 27 28 31 31 31 30 28 25 22 20 22 15 12 12 11 10 10 10 9 8 7
25 29 28 31 28 30 29 33 27 12 17 30 31 30 35 18 24 33 36 40 33 28 27 25 24 23 17 22 27 27 29 32 33 33 31 29 27 24 23 20 16 15 13 12 11 12 12 9 10
Wind_Direction
137 172 179 115 224 254 258 222 119 115 120 118 138 145 153 143 141 152 150 152 148 148 144 145 142 139 141 140 138 136 137 131 121 118 111 98 86 81 79 73 71 70 67 67 76 83 91 109 140
125 149 125 170 240 237 262 153 122 119 122 121 126 153 108 144 127 155 150 147 145 142 143 143 141 138 139 137 136 136 138 135 132 124 108 95 86 82 77 66 64 66 67 70 69 65 81 88 128
120 120 148 208 261 286 261 113 112 124 128 147 125 117 127 134 142 155 149 145 143 144 142 143 143 142 139 136 136 136 140 137 129 117 103 97 90 89 77 61 52 54 60 68 58 53 57 79 132
128 88 253 246 275 284 94 112 126 139 148 134 149 111 111 105 151 155 153 138 148 143 144 145 144 141 139 132 134 135 135 126 120 110 97 94 100 85 65 47 38 63 80 79 71 68 85 109 123
99 321 278 270 282 222 180 145 160 131 137 145 148 133 124 145 149 147 128 144 154 138 146 148 146 141 138 131 130 130 125 116 112 106 95 88 79 71 60 55 97 107 104 95 81 80 82 95 111
33 314 278 288 312 156 193 168 163 139 150 124 146 129 138 148 156 139 135 146 185 148 150 150 149 143 140 131 128 125 121 115 109 100 87 69 66 70 75 79 108 111 107 89 80 82 92 98 105
274 284 286 291 274 182 177 166 169 154 129 130 145 132 142 151 156 134 147 168 199 168 155 153 152 148 139 131 130 127 119 112 110 102 85 78 81 77 73 86 99 106 99 87 90 91 94 96 99
253 300 300 321 1 272 163 164 166 153 138 168 176 165 157 158 140 140 163 172 208 159 159 158 156 151 141 137 131 127 118 117 112 104 93 91 84 82 75 83 93 100 94 91 91 91 91 92 94
255 273 309 317 175 151 178 160 162 164 153 161 174 241 173 169 144 154 163 174 192 184 178 163 161 156 146 141 136 132 123 118 116 113 108 86 87 80 77 78 81 89 93 100 94 96 98 94 86
247 271 352 289 188 150 176 192 166 148 158 156 162 204 178 165 154 161 163 177 196 177 140 164 163 157 153 143 140 136 131 127 124 123 113 79 91 84 81 81 89 83 93 98 99 108 100 93 92
234 264 314 344 148 166 157 164 165 152 174 167 208 195 185 165 158 164 166 184 158 148 156 168 194 163 156 149 146 148 140 127 132 120 113 127 101 117 101 90 95 72 83 104 94 79 108 92 94
250 284 290 314 219 186 212 214 253 186 167 176 228 178 172 168 158 162 165 181 167 152 181 218 176 162 146 150 169 135 141 129 133 126 121 108 121 99 90 109 106 108 97 76 100 147 78 44 95
245 256 292 305 200 188 204 267 318 165 171 146 208 171 167 166 153 158 170 169 164 168 193 219 173 163 150 154 158 131 143 140 132 134 154 130 125 108 83 92 97 61 91 90 80 66 119 82 94
244 266 251 261 263 242 216 216 230 165 144 164 174 161 169 157 153 169 176 174 181 177 187 210 170 174 154 164 156 151 126 197 148 147 173 100 97 118 112 100 102 91 144 101 69 73 77 72 29
247 251 249 248 227 238 213 219 211 196 129 175 161 160 166 170 170 174 182 187 180 193 190 192 175 172 172 166 170 174 166 163 157 135 139 123 120 119 142 155 125 108 142 113 113 105 98 54 30
247 241 248 239 235 216 217 243 204 194 142 165 161 164 170 170 178 176 185 193 188 192 200 176 182 170 176 172 168 150 153 140 145 147 138 125 121 91 99 99 114 139 176 96 99 126 96 63 53
243 237 235 238 234 212 219 260 200 180 159 170 173 173 174 171 180 186 183 192 203 193 196 179 183 172 180 170 169 163 158 184 170 148 137 132 133 112 54 86 92 80 128 102 102 139 126 138 73
233 224 245 233 211 215 218 226 243 209 167 192 182 184 184 186 182 197 183 187 210 207 193 187 187 179 180 176 183 181 181 163 175 158 157 152 149 152 139 57 84 113 117 119 159 121 128 114 227
252 259 240 245 213 207 214 218 211 231 191 182 193 191 190 199 182 203 185 192 202 213 193 192 196 182 185 181 186 182 174 171 185 175 182 162 173 151 116 122 97 98 50 84 114 136 133 130 161
245 256 261 246 216 202 213 224 210 226 194 195 195 197 192 188 196 205 186 198 195 213 195 196 201 186 185 185 181 188 175 183 171 164 185 163 173 158 141 134 117 94 108 104 142 148 115 175 173
240 241 247 249 223 211 218 206 227 235 199 204 198 201 195 191 197 207 195 198 200 214 200 200 202 193 191 190 189 185 180 192 179 209 193 183 188 183 161 135 111 73 94 82 99 133 139 134 156
242 239 243 251 259 251 222 223 222 240 222 260 181 194 196 196 199 209 204 199 207 217 202 202 204 197 197 199 199 195 197 193 194 182 218 207 196 198 182 162 145 127 78 66 99 163 145 159 150
241 241 246 245 254 263 251 249 237 213 202 225 192 196 202 197 198 207 208 210 213 218 211 205 205 205 202 203 205 203 202 196 205 209 215 209 212 207 201 197 178 130 126 93 85 114 171 163 138
237 242 250 249 245 246 246 255 247 195 225 227 196 200 209 201 199 206 204 210 213 220 219 211 208 208 207 207 209 208 209 207 201 182 212 227 214 218 215 196 208 192 168 110 94 93 124 155 161
229 228 239 241 239 245 237 241 242 238 230 233 217 257 202 205 202 205 204 205 212 221 227 221 212 212 210 210 214 213 212 215 218 197 212 237 225 206 207 200 206 209 210 181 132 98 96 128 167
223 223 227 226 237 243 238 246 238 243 259 229 224 219 196 198 202 208 210 209 204 213 223 224 218 217 217 213 216 216 215 220 219 225 224 225 222 242 224 222 209 218 233 220 224 158 125 129 135
231 226 231 254 261 258 252 239 238 237 237 232 214 211 216 188 190 219 218 213 208 208 219 227 222 214 221 225 219 221 216 221 226 226 226 229 235 210 240 240 240 237 229 228 226 213 181 154 138
231 233 234 234 249 260 263 261 241 218 230 230 219 221 244 232 227 216 225 218 213 207 210 210 218 216 217 222 226 225 224 221 228 229 229 232 225 232 250 231 227 242 234 233 226 219 209 183 173
228 239 246 256 232 252 256 257 251 239 228 224 224 234 244 276 217 214 195 226 217 212 211 215 210 209 215 221 224 224 223 223 227 230 232 229 230 227 244 250 246 242 246 236 236 237 224 208 199
241 246 244 247 254 257 253 253 238 304 248 225 226 232 236 235 215 225 218 190 232 217 212 214 214 217 213 219 225 224 226 224 224 232 232 234 232 232 229 245 240 247 247 243 239 245 250 223 220